User: anonymous   Login
Location: Unspecified
(0.0000°N, 0.0000°E)
Time: 01:32:43
(UTC+00:00)
Language:

TRS 6 - Orbit

View from above orbital plane
View from above orbital plane
View from above satellite
View from above satellite

Ground track
Ground track

The orbit data is extracted from the following two-line orbital elements,

1   608U 63014C   19316.69920615  .00000015  00000-0  56099-2 0  9993
2   608  87.3314  63.2443 0083513 330.1000  29.5100  8.65289062785453
Epoch (UTC): 12 November 2019 16:46:51
Eccentricity: 0.0083513
inclination: 87.3314°
perigee height: 3560 km
apogee height: 3727 km
right ascension of ascending node: 63.2443°
argument of perigee: 330.1000°
revolutions per day: 8.65289062
mean anomaly at epoch: 29.5100°
orbit number at epoch: 78545

The dashed part of the orbit path shows where the satellite is in the earth's shadow,  

DLR